Flag for South Africa Weather past 2 weeks in Rustenburg, South Africa

Now
43 °F

Clear.


Feels Like: 39 °F
Forecast: 31 / 74 °F
Wind: 7 mph from Southeast

Location: Lanseria Civ / Mil

Current Time: Aug 31, 2014 at 6:23:22 AM

Latest Report: Aug 31, 2014 at 5:00 AM


Visibility: 10 mi

Pressure: 30.42 "Hg

Humidity: 39%

Dew point: 19 °F

Location of RustenburgLocation

Historic Weather in Rustenburg — Graph

°F

Rustenburg temperature yesterday

Maximum temperature yesterday: 66 °F (at 3:00 PM)
Minimum temperature yesterday: 36 °F (at 7:00 AM)
Average temperature yesterday: 51 °F

Past Weeks' High & Low Weather Summary

 TemperatureHumidityPressure
High79 °F (Aug 20, 3:00 PM)100% (Aug 16, 8:00 PM)30.57 "Hg (Aug 16, 8:00 PM)
Low34 °F (Aug 23, 6:00 AM)6% (Aug 26, 3:00 PM)29.92 "Hg (Aug 28, 3:00 PM)
Average57 °F38%30.24 "Hg
* Reported Aug 16 5:00 AM — Aug 31 5:00 AM, Rustenburg, Weather by CustomWeather, © 2014

Note: Actual official high and low records may vary slightly from our data, if they occured in-between our weather recording intervals... More about our weather records

Advertising

Rustenburg weather history for previous 24 hours

 ConditionsComfort  
Time TempWeatherWind HumidityBarometerVisibility
5:00 AM
Aug 31
43 °FClear.7 mph39%30.42 "Hg10 mi
4:00 AM45 °FQuite cool.5 mph37%30.42 "HgN/A
3:00 AM45 °FQuite cool.2 mph34%30.42 "HgN/A
2:00 AM45 °FQuite cool.3 mph34%30.42 "HgN/A
1:00 AM48 °FCool.7 mph29%30.42 "HgN/A
12:00 AM46 °FCool.2 mph32%30.42 "HgN/A
11:00 PM
Aug 30
48 °FCool.7 mph27%30.42 "HgN/A
10:00 PM52 °FClear.5 mph22%30.42 "Hg10 mi
9:00 PM52 °FClear.3 mph22%30.39 "Hg10 mi
8:00 PM55 °FClear.6 mph21%30.39 "Hg10 mi
7:00 PM59 °FClear.5 mph14%30.36 "Hg10 mi
6:00 PM63 °FClear.No wind13%30.33 "Hg10 mi
5:00 PM66 °FClear.No wind11%30.33 "Hg10 mi
4:00 PM66 °FSunny.3 mph11%30.33 "Hg10 mi
3:00 PM66 °FSunny.5 mph12%30.33 "Hg10 mi
2:00 PM64 °FSunny.3 mph13%30.33 "Hg10 mi
1:52 PM64 °FSunny.3 mph13%30.33 "Hg10 mi
1:00 PM61 °FSunny.7 mph16%30.36 "Hg10 mi
12:00 PM59 °FPassing clouds.8 mph18%30.39 "HgN/A
11:00 AM54 °FSunny.3 mph28%30.42 "Hg10 mi
10:00 AM50 °FPassing clouds.6 mph32%30.45 "HgN/A
9:00 AM46 °FPassing clouds.5 mph40%30.42 "HgN/A
8:00 AM41 °FPassing clouds.3 mph49%30.42 "HgN/A
7:00 AM36 °FPassing clouds.5 mph60%30.36 "HgN/A
6:00 AM37 °FPassing clouds.5 mph56%30.33 "HgN/A
Weather by CustomWeather, © 2014

See weather overviewHow to use our weather pages